"TOA5","AWS1","CR1000","7964","CR1000.Std.14","CPU:AWS1_114.CR1","64363","TBL110"
"TIMESTAMP","RECORD","Wind_spd_WVc(1)","Wind_spd_WVc(2)","Air_Temp_Avg","Humidity_Avg","SW_upper_Wm2_Avg","Rain_Tot","Press_Avg","Issui_Tot","Depth_cm","SR50A_Raw","Quality","Ground_Temp_Avg(1)","Ground_Temp_Avg(2)","SW_lower_Wm2_Avg","Albedo_Avg","SWC_per(1)","SWC_per(2)","Period(1)","Period(2)"
"TS","RN","","","","","","","","","","","","","","","","","","",""
"","","WVc","WVc","Avg","Avg","Avg","Tot","Avg","Tot","Smp","Smp","Smp","Avg","Avg","Avg","Avg","Smp","Smp","Smp","Smp"
"2016-12-30 00:00:00",268477,0.291,358.5,-5.067,99.6,0,0,864.3024,0,4.306,3.167,213,2.279,3.093,0,0,52.32,60.38,33.87,35.77
"2016-12-30 00:10:00",268478,0.374,320.9,-5.159,100,0.02753078,0,864.3044,0,5.941,3.151,284,2.294,3.048,0,0,52.32,60.38,33.87,35.77
"2016-12-30 00:20:00",268479,0.636,6.234,-5.301,100,0.2241792,0,864.3107,0,5.001,3.161,200,2.3,3.028,0,0,52.32,60.38,33.87,35.77
"2016-12-30 00:30:00",268480,0.314,12.12,-5.363,100,0.2359781,0,864.3024,0,4.407,3.167,185,2.284,3.06,0,0,52.32,60.33,33.87,35.75
"2016-12-30 00:40:00",268481,0.466,343.8,-5.386,100,0.2005814,0,864.4246,0,4.359,3.168,202,2.284,3.05,0,0,52.27,60.33,33.85,35.75
"2016-12-30 00:50:00",268482,0.42,3.27,-5.434,100,0.1376539,0,864.5553,0,4.706,3.165,195,2.292,3.038,0,0,52.27,60.33,33.85,35.75
"2016-12-30 01:00:00",268483,0.692,343.9,-5.622,100,0.3225034,0,864.806,0.5,4.782,3.165,198,2.306,3.03,0,0,52.32,60.33,33.87,35.75
"2016-12-30 01:10:00",268484,0.961,288.3,-5.898,97.6,0.5309508,0,864.8861,0,5.404,3.161,198,2.311,3.017,0,0,52.27,60.33,33.85,35.75
"2016-12-30 01:20:00",268485,1.285,306.3,-6.123,95,0.3579002,0,865.0042,0,6.197,3.154,198,2.321,3.016,0,0,52.32,60.33,33.87,35.75
"2016-12-30 01:30:00",268486,0.653,286.8,-6.16,92.2,0.02753078,0,865.04,0,6.048,3.155,198,2.32,3.03,0,0,52.27,60.33,33.85,35.75
"2016-12-30 01:40:00",268487,1.111,295.2,-6.173,91.5,0,0,865.1981,0,6.05,3.156,195,2.321,3.047,0,0,52.27,60.33,33.85,35.75
"2016-12-30 01:50:00",268488,0.949,315.6,-6.274,92.5,0,0,865.3351,0,6.05,3.156,187,2.323,3.05,0,0,52.27,60.33,33.85,35.75
"2016-12-30 02:00:00",268489,1.119,308.9,-6.34,91.8,0,0,865.3119,0,6.15,3.156,197,2.321,3.054,0,0,52.27,60.33,33.85,35.75
"2016-12-30 02:10:00",268490,1.06,306.7,-6.414,90.1,0,0,865.314,0,6.099,3.156,184,2.322,3.055,0.04550604,0,52.27,60.33,33.85,35.75
"2016-12-30 02:20:00",268491,0.349,315.8,-6.392,90.8,0,0,865.4278,0,6.024,3.157,200,2.325,3.06,0.07584357,0,52.27,60.33,33.85,35.75
"2016-12-30 02:30:00",268492,0.713,305.5,-6.479,91.6,0,0,865.4932,0,5.999,3.158,199,2.329,3.062,0,0,52.27,60.27,33.85,35.74
"2016-12-30 02:40:00",268493,0.474,292.9,-6.572,91.5,0,0,865.548,0,6.05,3.158,200,2.328,3.064,0,0,52.27,60.27,33.85,35.74
"2016-12-30 02:50:00",268494,0.736,321.4,-6.608,90.8,0,0,865.567,0,4.559,3.173,218,2.337,3.072,0,0,52.27,60.27,33.85,35.74
"2016-12-30 03:00:00",268495,0.59,302.1,-6.66,90.8,0,0,865.6807,0,5.564,3.163,212,2.353,3.091,0.007585263,0,52.27,60.27,33.85,35.74
"2016-12-30 03:10:00",268496,0.764,289.8,-6.675,90.9,0,0,865.8198,0,5.688,3.162,202,2.359,3.094,0.02654872,0,52.27,60.27,33.85,35.74
"2016-12-30 03:20:00",268497,0.56,295.3,-6.689,91.6,0,0,865.8135,0.5,5.538,3.164,196,2.361,3.091,0.09861053,0,52.27,60.27,33.85,35.74
"2016-12-30 03:30:00",268498,1.117,316.2,-6.75,93.2,0,0,865.8232,0,6.666,3.153,195,2.373,3.095,0.0417225,0,52.27,60.27,33.85,35.74
"2016-12-30 03:40:00",268499,0.589,256.3,-6.746,92.5,0,0,865.6664,0,6.81,3.151,194,2.38,3.089,0.1744769,0,52.27,60.27,33.85,35.74
"2016-12-30 03:50:00",268500,0.955,285.1,-6.812,90.6,0.01573587,0,865.78,0,6.76,3.152,190,2.387,3.095,0.003793093,0.016,52.27,60.27,33.85,35.74
"2016-12-30 04:00:00",268501,0.626,231.6,-6.831,91,0,0,866.0027,0,6.386,3.156,196,2.391,3.119,0.09862206,0,52.27,60.27,33.85,35.74
"2016-12-30 04:10:00",268502,0.761,289.7,-6.85,89.7,0,0,865.9076,0,6.482,3.155,181,2.4,3.108,0.04172606,0,52.27,60.27,33.85,35.74
"2016-12-30 04:20:00",268503,0.337,292.9,-6.855,88.7,0,0,865.8726,0,6.162,3.158,195,2.4,3.081,0.1479374,0,52.27,60.27,33.85,35.74
"2016-12-30 04:30:00",268504,0.197,288.8,-6.853,90.4,0,0,866.0841,0,6.234,3.158,190,2.402,3.076,0.1744915,0,52.21,60.21,33.84,35.73
"2016-12-30 04:40:00",268505,0.367,310.4,-6.964,92.2,0,0,866.1229,0,5.173,3.169,197,2.406,3.076,0.04552053,0,52.27,60.21,33.85,35.73
"2016-12-30 04:50:00",268506,0.462,293.6,-6.993,92.5,0,0,866.3168,0,5.593,3.165,199,2.406,3.102,0.03793351,0,52.21,60.21,33.84,35.73
"2016-12-30 05:00:00",268507,0.803,275.6,-7.045,91.7,0,0,866.4141,0,6.481,3.156,194,2.407,3.136,0.05690065,0,52.21,60.21,33.84,35.73
"2016-12-30 05:10:00",268508,1.044,263,-7.071,90.4,0,0,866.5594,0,5.767,3.164,197,2.406,3.095,0.1100074,0,52.21,60.21,33.84,35.73
"2016-12-30 05:20:00",268509,1.005,273.2,-7.199,89.9,0.003934267,0,866.6388,0,6.186,3.16,197,2.408,3.097,0,0,52.27,60.21,33.85,35.73
"2016-12-30 05:30:00",268510,0.844,206.1,-7.209,90.9,0,0,866.6622,0,5.62,3.166,200,2.409,3.1,0.01896693,0,52.21,60.27,33.84,35.74
"2016-12-30 05:40:00",268511,0.77,223.1,-7.245,91.4,0,0,866.9037,0,5.817,3.164,209,2.407,3.098,0.01517349,0,52.21,60.21,33.84,35.73
"2016-12-30 05:50:00",268512,0.567,224,-7.283,91.4,0,0,867.0771,0,7.394,3.148,213,2.409,3.117,0.07207473,0,52.21,60.21,33.84,35.73
"2016-12-30 06:00:00",268513,0.593,210.4,-7.2,90.8,0,0,867.1188,0,8.78,3.134,221,2.41,3.099,0.1896708,0,52.21,60.21,33.84,35.73
"2016-12-30 06:10:00",268514,0.977,285.1,-7.296,90.7,0,0,867.1605,0.5,8.36,3.139,211,2.41,3.103,0.0644882,0,52.21,60.21,33.84,35.73
"2016-12-30 06:20:00",268515,1.22,288.2,-7.378,90,0.007868626,0,867.3588,0,9.47,3.128,194,2.41,3.103,0.003793426,0,52.21,60.21,33.84,35.73
"2016-12-30 06:30:00",268516,0.941,231.3,-7.396,91,0.003934314,0,867.6717,0,9.07,3.132,192,2.41,3.103,0.0569014,0,52.27,60.21,33.85,35.73
"2016-12-30 06:40:00",268517,0.765,225.4,-7.456,90.1,0.09442353,0,867.9334,0,9.37,3.13,195,2.41,3.103,0.007586854,0,52.21,60.21,33.84,35.73
"2016-12-30 06:50:00",268518,1.088,264.1,-7.541,87.3,0.2360588,0,867.8701,0,8.78,3.136,196,2.41,3.103,0.1820845,0.771,52.21,60.15,33.84,35.71
"2016-12-30 07:00:00",268519,0.84,251.2,-7.57,88.4,0.2557304,0,867.9393,0,8.8,3.136,192,2.41,3.103,0.8155868,3.182,52.21,60.15,33.84,35.71
"2016-12-30 07:10:00",268520,0.842,262.3,-7.605,87.8,0.8498037,0,868.0354,0,8.9,3.135,187,2.408,3.101,2.556745,3.032,52.21,60.15,33.84,35.71
"2016-12-30 07:20:00",268521,0.553,210.5,-7.61,87.7,1.066188,0,868.1838,0,9.05,3.133,195,2.408,3.1,3.971676,3.73,52.21,60.15,33.84,35.71
"2016-12-30 07:30:00",268522,0.65,263.7,-7.593,88,2.238614,0,868.2894,0,8.09,3.143,198,2.409,3.102,7.60958,3.453,52.21,60.15,33.84,35.71
"2016-12-30 07:40:00",268523,0.457,200.5,-7.558,88.7,4.508717,0,868.2452,0,8.06,3.143,199,2.409,3.102,15.03712,3.316,52.21,60.15,33.84,35.71
"2016-12-30 07:50:00",268524,0.265,187.4,-7.459,89.3,7.026681,0,868.201,0,7.988,3.143,201,2.41,3.103,23.36371,3.325,52.21,60.15,33.84,35.71
"2016-12-30 08:00:00",268525,0.163,236.2,-7.338,88.6,7.951248,0,868.4329,0,6.681,3.156,203,2.41,3.103,25.95083,3.266,52.21,60.15,33.84,35.71
"2016-12-30 08:10:00",268526,0.329,170,-7.325,89.4,11.17738,0,868.4308,0,5.866,3.164,232,2.41,3.104,33.40492,2.997,52.21,60.15,33.84,35.71
"2016-12-30 08:20:00",268527,0.405,181,-7.255,89.9,18.76667,0,868.454,0,8.04,3.141,242,2.41,3.127,56.20341,2.989,52.16,60.15,33.83,35.71
"2016-12-30 08:30:00",268528,0.473,155,-6.968,89.6,24.10554,0,868.6774,0,8.87,3.132,238,2.401,3.143,74.87845,3.12,52.16,60.15,33.83,35.71
"2016-12-30 08:40:00",268529,0.291,181.1,-6.859,88.5,20.21057,0,868.6801,0,6.846,3.151,251,2.374,3.131,60.78587,2.997,52.16,60.15,33.83,35.71
"2016-12-30 08:50:00",268530,0.681,178.2,-6.8,88.3,20.00992,0,868.6768,0,5.859,3.161,259,2.371,3.109,57.019,2.843,52.21,60.15,33.84,35.71
"2016-12-30 09:00:00",268531,0.637,194.3,-6.569,87.4,29.98284,0,868.7734,0,7.17,3.145,227,2.383,3.099,91.76125,3.071,52.16,60.15,33.83,35.71
"2016-12-30 09:10:00",268532,0.591,282,-6.786,86.1,23.83993,0,868.8769,0,9.73,3.122,196,2.378,3.094,68.2722,2.888,52.21,60.09,33.84,35.7
"2016-12-30 09:20:00",268533,0.369,230.6,-6.566,85.7,28.8854,0,868.9324,0,9.54,3.122,201,2.371,3.092,82.02454,2.833,52.16,60.09,33.83,35.7
"2016-12-30 09:30:00",268534,0.471,217.7,-6.295,86.3,30.73595,0,869.1093,0,10.19,3.112,272,2.354,3.118,81.65833,2.662,52.16,60.09,33.83,35.7
"2016-12-30 09:40:00",268535,0.4,280.6,-6.272,85.2,31.21374,0,869.1124,0,9.7,3.119,300,2.343,3.046,77.85668,2.497,52.16,60.09,33.83,35.7
"2016-12-30 09:50:00",268536,0.747,177,-5.965,83.5,34.3316,0,869.1332,0,10.15,3.111,292,2.348,3.054,85.22231,2.491,52.16,60.09,33.83,35.7
"2016-12-30 10:00:00",268537,1.061,281.3,-5.838,79.16,41.43412,0,869.108,0,9.8,3.116,193,2.361,3.093,105.1906,2.557,52.16,60.09,33.83,35.7
"2016-12-30 10:10:00",268538,0.69,163.2,-5.618,77.72,38.57859,0,869.0995,0,9.65,3.116,196,2.34,3.099,114.9284,2.952,52.16,60.09,33.83,35.7
"2016-12-30 10:20:00",268539,1.317,249.7,-5.752,77.66,46.03151,0,869.1059,0,9.98,3.113,194,2.335,3.101,137.6583,2.978,52.16,60.09,33.83,35.7
"2016-12-30 10:30:00",268540,1.086,275,-5.639,78.46,36.80869,0,869.0891,0,9.41,3.12,193,2.335,3.101,108.0948,2.887,52.16,60.09,33.83,35.7
"2016-12-30 10:40:00",268541,0.467,221.8,-5.402,77.88,47.42378,0,869.1059,0,9.75,3.11,190,2.34,3.099,149.2887,3.13,52.16,60.09,33.83,35.7
"2016-12-30 10:50:00",268542,0.95,223.4,-5.086,75.81,47.70696,0,869.0722,0,9.55,3.115,195,2.393,3.101,136.9415,2.847,52.16,60.09,33.83,35.7
"2016-12-30 11:00:00",268543,0.606,293.9,-5.31,77.51,56.97697,0,869.1059,0,9.7,3.113,195,2.403,3.101,151.0824,2.65,52.16,60.09,33.83,35.7
"2016-12-30 11:10:00",268544,1.018,231.7,-5.081,75.24,56.15892,0,869.108,0,9.21,3.117,181,2.409,3.101,179.0987,3.168,52.16,60.09,33.83,35.7
"2016-12-30 11:20:00",268545,1.107,195.2,-4.913,73.6,65.56658,0,868.9879,0.5,8.96,3.118,190,2.409,3.102,218.3245,3.407,52.16,60.09,33.83,35.7
"2016-12-30 11:30:00",268546,0.942,275.6,-4.99,71.02,100.3047,0,868.8267,0,9.36,3.115,189,2.403,3.121,232.2259,2.321,52.16,60.09,33.83,35.7
"2016-12-30 11:40:00",268547,0.559,208.3,-4.823,71.86,73.37418,0,868.8058,0,8.84,3.118,190,2.371,3.153,170.2687,2.438,52.16,60.09,33.83,35.7
"2016-12-30 11:50:00",268548,0.793,303.9,-5.194,72.17,51.50227,0,868.7896,0,9.3,3.115,191,2.325,3.128,163.005,2.942,52.16,60.09,33.83,35.7
"2016-12-30 12:00:00",268549,0.682,301.6,-5.034,72.01,53.39769,0,868.833,0,9.16,3.118,189,2.279,3.109,195.5244,3.529,52.16,60.03,33.83,35.69
"2016-12-30 12:10:00",268550,1.1,288.4,-4.89,70.66,96.61718,0,868.8329,0,8.89,3.12,188,2.343,3.102,243.5345,2.584,52.16,60.09,33.83,35.7
"2016-12-30 12:20:00",268551,0.646,301.9,-4.747,70.82,110.951,0,868.7628,0,9.11,3.116,189,2.396,3.099,238.5509,2.194,52.16,60.03,33.83,35.69
"2016-12-30 12:30:00",268552,0.726,305.8,-4.634,70.62,69.4286,0,868.7584,0,8.86,3.12,195,2.406,3.097,162.5586,2.641,52.16,60.03,33.83,35.69
"2016-12-30 12:40:00",268553,1.677,298.8,-5.383,72.79,47.27865,0,868.8151,0,8.98,3.122,190,2.39,3.081,113.0656,2.455,52.16,60.03,33.83,35.69
"2016-12-30 12:50:00",268554,0.952,291,-5.451,73.85,53.5178,0,868.8124,0,8.88,3.121,190,2.351,3.062,142.7017,2.749,52.16,60.03,33.83,35.69
"2016-12-30 13:00:00",268555,1.116,316.9,-5.25,72.37,94.71422,0,868.8108,0,8.78,3.121,196,2.341,3.058,163.3111,1.854,52.1,60.09,33.81,35.7
"2016-12-30 13:10:00",268556,1.397,292.6,-5.356,70.66,48.55476,0,868.6654,0,8.92,3.122,202,2.307,3.072,113.4942,2.387,52.16,60.09,33.83,35.7
"2016-12-30 13:20:00",268557,0.955,316.2,-5.309,70.79,56.72241,0,868.4856,0,8.72,3.121,194,2.328,3.084,159.6386,2.82,52.1,60.09,33.81,35.7
"2016-12-30 13:30:00",268558,0.625,13.65,-4.937,70.51,52.83582,0,868.5189,0,9.19,3.116,196,2.312,3.091,133.5819,2.583,52.1,60.09,33.81,35.7
"2016-12-30 13:40:00",268559,0.895,308.1,-4.927,68.22,53.77242,0,868.5751,0,8.91,3.119,196,2.322,3.096,139.5585,2.62,52.1,60.09,33.81,35.7
"2016-12-30 13:50:00",268560,0.956,21.5,-4.538,67.34,51.61818,0,868.6345,0,8.22,3.124,189,2.321,3.097,126.3255,2.469,52.1,60.03,33.81,35.69
"2016-12-30 14:00:00",268561,1.16,313.8,-5.16,67.58,19.72103,0,868.7331,0,8.76,3.124,196,2.352,3.12,44.87589,2.253,52.1,60.03,33.81,35.69
"2016-12-30 14:10:00",268562,0.673,275.4,-5.599,69.13,14.67283,0,868.7608,0,8.94,3.124,186,2.327,3.161,31.23649,2.14,52.1,60.09,33.81,35.7
"2016-12-30 14:20:00",268563,1.146,304.2,-5.646,69.69,12.91146,0,868.7621,0,8.96,3.122,193,2.319,3.114,33.14708,2.583,52.1,60.09,33.81,35.7
"2016-12-30 14:30:00",268564,0.63,282.8,-5.505,70.45,10.40702,0,868.7667,0,8.89,3.123,198,2.319,3.034,31.55871,3.031,52.1,60.03,33.81,35.69
"2016-12-30 14:40:00",268565,0.53,3.354,-5.525,69.86,9.270777,0,868.7626,0,8.37,3.128,188,2.319,3.013,26.08475,2.812,52.1,60.03,33.81,35.69
"2016-12-30 14:50:00",268566,0.359,279.1,-5.505,70.99,8.032313,0,868.7626,0,8.81,3.124,193,2.319,3.011,22.24463,2.77,52.1,60.03,33.81,35.69
"2016-12-30 15:00:00",268567,0.439,271.9,-5.572,70.84,7.116296,0,868.7601,0,8.86,3.124,194,2.329,3.022,20.28113,2.855,52.1,60.03,33.81,35.69
"2016-12-30 15:10:00",268568,0.364,264.4,-5.547,71.23,6.251772,0,868.775,0,8.6,3.126,196,2.357,3.043,18.90257,3.024,52.1,60.03,33.81,35.69
"2016-12-30 15:20:00",268569,0.353,269.5,-5.584,71.95,5.619342,0,868.9177,0,8.73,3.125,187,2.362,3.065,17.19846,3.066,52.1,60.03,33.81,35.69
"2016-12-30 15:30:00",268570,0.261,268.9,-5.684,72.27,5.151868,0,869.09,0,8.47,3.128,187,2.391,3.072,15.95249,3.098,52.1,60.03,33.81,35.69
"2016-12-30 15:40:00",268571,0.125,233.7,-5.708,74.55,4.684066,0,869.1261,0,8.42,3.129,189,2.394,3.094,14.19364,3.031,52.1,60.03,33.81,35.69
"2016-12-30 15:50:00",268572,0.043,230.9,-5.846,76.49,4.172853,0,869.2379,0,8.62,3.128,185,2.355,3.098,12.75664,3.059,52.1,60.03,33.81,35.69
"2016-12-30 16:00:00",268573,0.177,255.4,-5.99,76.78,3.228962,0,869.3438,0,8.57,3.129,191,2.327,3.096,11.47497,3.57,52.1,60.03,33.81,35.69
"2016-12-30 16:10:00",268574,0.279,216.7,-6.015,77.52,2.383378,0,869.3607,0,8.47,3.13,187,2.333,3.096,9.977092,4.218,52.1,60.03,33.81,35.69
"2016-12-30 16:20:00",268575,0.218,223.5,-6.018,77.71,1.805233,0,869.5673,0,8.5,3.13,179,2.349,3.102,8.270637,4.596,52.1,60.03,33.81,35.69
"2016-12-30 16:30:00",268576,0.121,239.8,-6.145,79.23,1.207422,0,869.6136,0,8.37,3.132,193,2.361,3.074,5.87401,5.004,52.1,60.03,33.81,35.69
"2016-12-30 16:40:00",268577,0.11,218.1,-6.279,79.74,0.2281122,0,869.6284,0,8.37,3.133,177,2.364,3.055,3.651821,3.669,52.1,60.03,33.81,35.69
"2016-12-30 16:50:00",268578,0.007,207.9,-6.557,80.3,0,0,869.66,0,8.47,3.134,190,2.368,3.059,0.9594089,0,52.1,59.97,33.81,35.67
"2016-12-30 17:00:00",268579,0.03,16.1,-6.871,81.6,0,0,869.6179,0,8.11,3.139,182,2.348,3.082,0,0,52.05,59.97,33.8,35.67
"2016-12-30 17:10:00",268580,0.001,0.679,-6.927,81.1,0,0,869.6136,0,8.33,3.138,189,2.322,3.065,0,0,52.1,60.03,33.81,35.69
"2016-12-30 17:20:00",268581,0,0,-7.15,83.2,0,0,869.6158,0,8.46,3.137,178,2.337,3.066,0,0,52.1,60.03,33.81,35.69
"2016-12-30 17:30:00",268582,0.427,335.7,-6.814,82.1,0,0,869.8609,0,8.45,3.133,174,2.356,3.058,0.7130249,0,52.1,59.97,33.81,35.67
"2016-12-30 17:40:00",268583,0.921,307.4,-6.371,79.51,0,0,869.7825,0,7.869,3.138,186,2.377,3.079,1.433728,0,52.05,59.97,33.8,35.67
"2016-12-30 17:50:00",268584,0.38,326.6,-6.491,79.42,0,0,869.6556,0,7.769,3.143,184,2.391,3.085,0.2655172,0,52.05,59.97,33.8,35.67
"2016-12-30 18:00:00",268585,0.115,168.7,-7.575,83.5,0,0,869.6901,0,7.995,3.145,178,2.403,3.095,0,0,52.1,59.97,33.81,35.67
"2016-12-30 18:10:00",268586,0.305,214.2,-7.893,86.1,0,0,869.7023,0,8.04,3.145,178,2.408,3.1,0,0,52.1,59.97,33.81,35.67
"2016-12-30 18:20:00",268587,0.462,187.1,-8.02,87,0,0,869.7244,0,8.1,3.146,180,2.41,3.102,0,0,52.05,59.97,33.8,35.67
"2016-12-30 18:30:00",268588,0.065,139.9,-8.36,88,0,0,869.8705,0,8.12,3.148,182,2.421,3.114,0,0,52.1,59.97,33.81,35.67
"2016-12-30 18:40:00",268589,0.023,172.8,-8.38,89.4,0,0,869.7127,0,8.25,3.147,177,2.446,3.142,0,0,52.05,59.97,33.8,35.67
"2016-12-30 18:50:00",268590,0.374,187.8,-8.53,89.9,0,0,869.7086,0,8.25,3.147,177,2.451,3.144,0,0,52.05,59.97,33.8,35.67
"2016-12-30 19:00:00",268591,0.081,257.4,-8.29,89.7,0,0,869.7401,0,7.729,3.151,177,2.453,3.145,0.09104225,0,52.05,59.97,33.8,35.67
"2016-12-30 19:10:00",268592,0,0,-8.68,89.5,0,0,869.9362,0,8.08,3.15,178,2.453,3.145,0,0,52.1,59.97,33.81,35.67
"2016-12-30 19:20:00",268593,0.01,187.8,-8.88,90.8,0,0,869.9636,0,8.11,3.151,182,2.453,3.145,0.01517371,0,52.1,59.97,33.81,35.67
"2016-12-30 19:30:00",268594,0.353,187.6,-9.05,91,0,0,869.9636,0,8.14,3.152,186,2.449,3.145,0.09483567,0,52.1,59.97,33.81,35.67
"2016-12-30 19:40:00",268595,0.397,192.1,-9.25,91.4,0,0,869.9066,0,8.09,3.154,186,2.444,3.146,0.1744976,0,52.1,59.91,33.81,35.66
"2016-12-30 19:50:00",268596,0.252,349.2,-8.8,91.4,0,0,869.837,0,8.21,3.142,193,2.431,3.151,0.8421408,0,52.1,59.97,33.81,35.67
"2016-12-30 20:00:00",268597,0.178,18.41,-7.274,83.2,0,0,869.894,0,7.886,3.142,190,2.448,3.145,1.934648,0,52.05,59.97,33.8,35.67
"2016-12-30 20:10:00",268598,0.279,2.135,-7.211,81.4,0,0,869.9593,0,7.739,3.144,189,2.45,3.145,1.103887,0,52.05,59.91,33.8,35.66
"2016-12-30 20:20:00",268599,0.133,8.83,-8.32,84.5,0,0,869.9593,0,7.984,3.152,194,2.446,3.145,0.09104225,0,52.05,59.91,33.8,35.66
"2016-12-30 20:30:00",268600,0.124,8.8,-8.8,89.2,0,0,869.9762,0,7.857,3.152,195,2.428,3.146,0,0,52.05,59.91,33.8,35.66
"2016-12-30 20:40:00",268601,0.117,8.66,-8.92,89.3,0,0,870.1807,0,8.08,3.151,193,2.412,3.147,0,0,52.05,59.91,33.8,35.66
"2016-12-30 20:50:00",268602,0.349,8.39,-8.97,90,0,0,870.1357,0,8.13,3.151,195,2.419,3.162,0.1593267,0,51.99,59.91,33.79,35.66
"2016-12-30 21:00:00",268603,0.285,332.2,-9.08,90.4,0,0,869.8846,0,8.03,3.152,194,2.4,3.166,0.2086431,0,52.05,59.91,33.8,35.66
"2016-12-30 21:10:00",268604,0.14,222.5,-8.89,90.6,0,0,869.7454,0,7.898,3.153,190,2.375,3.156,0.2579649,0,52.05,59.91,33.8,35.66
"2016-12-30 21:20:00",268605,0.015,222.6,-8.79,90.4,0,0,869.9109,0,7.805,3.152,194,2.384,3.149,0.1327852,0,52.05,59.91,33.8,35.66
"2016-12-30 21:30:00",268606,0.08,222.6,-8.9,90,0,0,870.0051,0,7.93,3.153,194,2.41,3.173,0.1707397,0,52.05,59.91,33.8,35.66
"2016-12-30 21:40:00",268607,0.308,192.4,-9.14,90.8,0,0,870.074,0,7.949,3.154,193,2.415,3.176,0.3680553,0,52.05,59.91,33.8,35.66
"2016-12-30 21:50:00",268608,0.014,185.3,-8.91,91.2,0,0,870.167,0,7.444,3.156,193,2.439,3.168,0.364277,0,51.99,59.91,33.79,35.66
"2016-12-30 22:00:00",268609,0.185,14.26,-8.11,86.5,0,0,870.2665,0,7.915,3.143,188,2.443,3.166,1.601348,0,52.05,59.91,33.8,35.66
"2016-12-30 22:10:00",268610,0.185,30.02,-7.393,79.44,0,0,870.2523,0.5,7.334,3.154,193,2.429,3.185,1.787302,0,51.99,59.91,33.79,35.66
"2016-12-30 22:20:00",268611,0.266,186.3,-7.963,84.1,0,0,870.2948,0,7.918,3.145,193,2.446,3.192,0.4781345,0,52.05,59.91,33.8,35.66
"2016-12-30 22:30:00",268612,0.572,178.8,-7.806,83.3,0,0,870.1706,0,7.58,3.152,194,2.427,3.214,0.8348387,0,52.05,59.91,33.8,35.66
"2016-12-30 22:40:00",268613,0.71,187.3,-8.05,85.2,0,0,869.9724,0,7.97,3.146,189,2.431,3.223,0.3415251,0,52.05,59.91,33.8,35.66
"2016-12-30 22:50:00",268614,0.704,293.5,-7.604,84.7,0,0,869.7924,0,7.766,3.145,193,2.441,3.235,0.6564872,0,51.99,59.91,33.79,35.66
"2016-12-30 23:00:00",268615,0.587,2.613,-7.272,81.2,0,0,869.9418,0,7.567,3.146,189,2.489,3.233,0.4136248,0,52.05,59.85,33.8,35.64
"2016-12-30 23:10:00",268616,0.638,16.55,-7.216,79.93,0,0,869.8571,0,7.863,3.143,188,2.479,3.233,0.04553668,0,52.05,59.85,33.8,35.64
"2016-12-30 23:20:00",268617,0.425,12.93,-7.164,78.99,0,0,869.7993,0,7.615,3.145,184,2.508,3.233,0.03415251,0,51.99,59.85,33.79,35.64
"2016-12-30 23:30:00",268618,0.048,5.014,-8.05,81,0.3305908,0,869.8555,0,7.618,3.156,189,2.491,3.232,0.007589447,0,51.99,59.85,33.79,35.64
"2016-12-30 23:40:00",268619,0.036,33.59,-8.67,86.6,0.1810379,0,869.9064,0,7.243,3.158,189,2.431,3.233,0,0,51.99,59.85,33.79,35.64
"2016-12-30 23:50:00",268620,0.009,46.7,-9.11,86.4,0,0,869.8718,0,7.455,3.161,189,2.416,3.228,0,0,52.05,59.85,33.8,35.64
